Time,TemperatureF,DewpointF,PressureIn,WindDirection,WindDirectionDegrees,WindSpeedMPH,WindSpeedGustMPH,Humidity,HourlyPrecipIn,Conditions,Clouds,dailyrainin,SoftwareType,DateUTC
2013-04-11 00:00:00,56.8,45.2,30.06,ENE,68,1.0,-999.0,65,0.00,,,0.00,Wunderground v.1.15,2013-04-11 07:00:00,
2013-04-11 00:05:00,56.8,45.2,30.06,ENE,68,1.0,-999.0,65,0.00,,,0.00,Wunderground v.1.15,2013-04-11 07:05:00,
2013-04-11 00:10:00,56.8,45.2,30.06,ENE,68,1.0,-999.0,65,0.00,,,0.00,Wunderground v.1.15,2013-04-11 07:10:00,
2013-04-11 00:15:00,57.5,45.4,30.05,ENE,68,0.0,-999.0,64,0.00,,,0.00,Wunderground v.1.15,2013-04-11 07:15:00,
2013-04-11 00:20:00,57.5,45.4,30.05,ENE,68,0.0,-999.0,64,0.00,,,0.00,Wunderground v.1.15,2013-04-11 07:20:00,
2013-04-11 00:25:00,57.7,45.6,30.05,ENE,68,0.0,-999.0,64,0.00,,,0.00,Wunderground v.1.15,2013-04-11 07:25:00,
2013-04-11 00:30:00,57.7,45.6,30.05,ENE,68,0.0,-999.0,64,0.00,,,0.00,Wunderground v.1.15,2013-04-11 07:30:00,
2013-04-11 00:35:00,57.6,45.5,30.05,ENE,68,0.0,-999.0,64,0.00,,,0.00,Wunderground v.1.15,2013-04-11 07:35:00,
2013-04-11 00:40:00,57.6,45.5,30.05,ENE,68,0.0,-999.0,64,0.00,,,0.00,Wunderground v.1.15,2013-04-11 07:40:00,
2013-04-11 00:45:00,57.8,45.7,30.04,ENE,68,0.0,-999.0,64,0.00,,,0.00,Wunderground v.1.15,2013-04-11 07:45:00,
2013-04-11 00:50:00,57.8,45.7,30.04,ENE,68,0.0,-999.0,64,0.00,,,0.00,Wunderground v.1.15,2013-04-11 07:50:00,
2013-04-11 00:55:00,57.4,46.5,30.04,ENE,68,0.0,-999.0,67,0.00,,,0.00,Wunderground v.1.15,2013-04-11 07:55:00,
2013-04-11 01:00:00,57.4,46.5,30.04,ENE,68,0.0,-999.0,67,0.00,,,0.00,Wunderground v.1.15,2013-04-11 08:00:00,
2013-04-11 01:05:00,56.8,46.0,30.04,East,90,0.0,-999.0,67,0.00,,,0.00,Wunderground v.1.15,2013-04-11 08:05:00,
2013-04-11 01:10:00,56.8,46.0,30.04,East,90,0.0,-999.0,67,0.00,,,0.00,Wunderground v.1.15,2013-04-11 08:10:00,
2013-04-11 01:15:00,56.6,45.8,30.04,East,90,1.0,-999.0,67,0.00,,,0.00,Wunderground v.1.15,2013-04-11 08:15:00,
2013-04-11 01:20:00,56.6,45.8,30.04,East,90,1.0,-999.0,67,0.00,,,0.00,Wunderground v.1.15,2013-04-11 08:20:00,
2013-04-11 01:25:00,56.5,46.4,30.03,East,90,1.0,-999.0,69,0.00,,,0.00,Wunderground v.1.15,2013-04-11 08:25:00,
2013-04-11 01:30:00,56.5,46.4,30.03,East,90,1.0,-999.0,69,0.00,,,0.00,Wunderground v.1.15,2013-04-11 08:30:00,
2013-04-11 01:35:00,55.9,46.6,30.03,East,90,0.0,-999.0,71,0.00,,,0.00,Wunderground v.1.15,2013-04-11 08:35:00,
2013-04-11 01:40:00,55.9,46.6,30.03,East,90,0.0,-999.0,71,0.00,,,0.00,Wunderground v.1.15,2013-04-11 08:40:00,
2013-04-11 01:45:00,55.1,46.2,30.03,East,90,1.0,-999.0,72,0.00,,,0.00,Wunderground v.1.15,2013-04-11 08:45:00,
2013-04-11 01:50:00,55.1,46.2,30.03,East,90,1.0,-999.0,72,0.00,,,0.00,Wunderground v.1.15,2013-04-11 08:50:00,
2013-04-11 01:55:00,54.7,46.2,30.03,East,90,1.0,-999.0,73,0.00,,,0.00,Wunderground v.1.15,2013-04-11 08:55:00,
2013-04-11 02:00:00,54.7,46.2,30.03,East,90,1.0,-999.0,73,0.00,,,0.00,Wunderground v.1.15,2013-04-11 09:00:00,
2013-04-11 02:05:00,54.5,46.4,30.03,East,90,1.0,-999.0,74,0.00,,,0.00,Wunderground v.1.15,2013-04-11 09:05:00,
2013-04-11 02:10:00,54.5,46.4,30.03,East,90,1.0,-999.0,74,0.00,,,0.00,Wunderground v.1.15,2013-04-11 09:10:00,
2013-04-11 02:15:00,54.4,46.3,30.03,East,90,0.0,-999.0,74,0.00,,,0.00,Wunderground v.1.15,2013-04-11 09:15:00,
2013-04-11 02:20:00,54.4,46.3,30.03,East,90,0.0,-999.0,74,0.00,,,0.00,Wunderground v.1.15,2013-04-11 09:20:00,
2013-04-11 02:25:00,53.9,46.5,30.03,East,90,0.0,-999.0,76,0.00,,,0.00,Wunderground v.1.15,2013-04-11 09:25:00,
2013-04-11 02:30:00,53.9,46.5,30.03,East,90,0.0,-999.0,76,0.00,,,0.00,Wunderground v.1.15,2013-04-11 09:30:00,
2013-04-11 02:35:00,53.2,46.2,30.03,East,90,1.0,-999.0,77,0.00,,,0.00,Wunderground v.1.15,2013-04-11 09:35:00,
2013-04-11 02:40:00,53.2,46.2,30.03,East,90,1.0,-999.0,77,0.00,,,0.00,Wunderground v.1.15,2013-04-11 09:40:00,
2013-04-11 02:45:00,52.7,45.7,30.03,East,90,0.0,-999.0,77,0.00,,,0.00,Wunderground v.1.15,2013-04-11 09:45:00,
2013-04-11 02:50:00,52.7,45.7,30.03,East,90,0.0,-999.0,77,0.00,,,0.00,Wunderground v.1.15,2013-04-11 09:50:00,
2013-04-11 02:55:00,52.4,45.7,30.02,East,90,0.0,-999.0,78,0.00,,,0.00,Wunderground v.1.15,2013-04-11 09:55:00,
2013-04-11 03:00:00,52.4,45.7,30.02,East,90,0.0,-999.0,78,0.00,,,0.00,Wunderground v.1.15,2013-04-11 10:00:00,
2013-04-11 03:05:00,52.1,45.8,30.01,East,90,2.0,-999.0,79,0.00,,,0.00,Wunderground v.1.15,2013-04-11 10:05:00,
2013-04-11 03:10:00,52.1,45.8,30.01,East,90,2.0,-999.0,79,0.00,,,0.00,Wunderground v.1.15,2013-04-11 10:10:00,
2013-04-11 03:15:00,51.5,45.9,30.01,ESE,113,2.0,-999.0,81,0.00,,,0.00,Wunderground v.1.15,2013-04-11 10:15:00,
2013-04-11 03:20:00,51.5,45.9,30.01,ESE,113,2.0,-999.0,81,0.00,,,0.00,Wunderground v.1.15,2013-04-11 10:20:00,
2013-04-11 03:25:00,51.5,45.9,30.01,SE,135,3.0,-999.0,81,0.00,,,0.00,Wunderground v.1.15,2013-04-11 10:25:00,
2013-04-11 03:30:00,51.5,45.9,30.01,SE,135,3.0,-999.0,81,0.00,,,0.00,Wunderground v.1.15,2013-04-11 10:30:00,
2013-04-11 03:35:00,52.2,45.9,30.01,SE,135,4.0,-999.0,79,0.00,,,0.00,Wunderground v.1.15,2013-04-11 10:35:00,
2013-04-11 03:40:00,52.2,45.9,30.01,SE,135,4.0,-999.0,79,0.00,,,0.00,Wunderground v.1.15,2013-04-11 10:40:00,
2013-04-11 03:45:00,52.9,46.2,30.01,ESE,113,2.0,-999.0,78,0.00,,,0.00,Wunderground v.1.15,2013-04-11 10:45:00,
2013-04-11 03:50:00,52.9,46.2,30.01,ESE,113,2.0,-999.0,78,0.00,,,0.00,Wunderground v.1.15,2013-04-11 10:50:00,
2013-04-11 03:55:00,52.8,46.1,30.01,ESE,113,1.0,-999.0,78,0.00,,,0.00,Wunderground v.1.15,2013-04-11 10:55:00,
2013-04-11 04:00:00,52.8,46.1,30.01,ESE,113,1.0,-999.0,78,0.00,,,0.00,Wunderground v.1.15,2013-04-11 11:00:00,
2013-04-11 04:05:00,52.1,46.1,30.00,SE,135,2.0,-999.0,80,0.00,,,0.00,Wunderground v.1.15,2013-04-11 11:05:00,
2013-04-11 04:10:00,52.1,46.1,30.00,SE,135,2.0,-999.0,80,0.00,,,0.00,Wunderground v.1.15,2013-04-11 11:10:00,
2013-04-11 04:15:00,52.0,46.0,30.00,SE,135,3.0,-999.0,80,0.00,,,0.00,Wunderground v.1.15,2013-04-11 11:15:00,
2013-04-11 04:20:00,52.0,46.0,30.00,SE,135,3.0,-999.0,80,0.00,,,0.00,Wunderground v.1.15,2013-04-11 11:20:00,
2013-04-11 04:25:00,52.3,46.0,30.00,SE,135,3.0,-999.0,79,0.00,,,0.00,Wunderground v.1.15,2013-04-11 11:25:00,
2013-04-11 04:30:00,52.3,46.0,30.00,SE,135,3.0,-999.0,79,0.00,,,0.00,Wunderground v.1.15,2013-04-11 11:30:00,
2013-04-11 04:35:00,52.4,46.1,30.00,SSE,158,1.0,-999.0,79,0.00,,,0.00,Wunderground v.1.15,2013-04-11 11:35:00,
2013-04-11 04:40:00,52.4,46.1,30.00,SSE,158,1.0,-999.0,79,0.00,,,0.00,Wunderground v.1.15,2013-04-11 11:40:00,
2013-04-11 04:45:00,52.0,46.0,30.00,SSE,158,1.0,-999.0,80,0.00,,,0.00,Wunderground v.1.15,2013-04-11 11:45:00,
2013-04-11 04:50:00,52.0,46.0,30.00,SSE,158,1.0,-999.0,80,0.00,,,0.00,Wunderground v.1.15,2013-04-11 11:50:00,
2013-04-11 04:55:00,51.1,45.8,30.00,SSE,158,0.0,-999.0,82,0.00,,,0.00,Wunderground v.1.15,2013-04-11 11:55:00,
2013-04-11 05:00:00,51.1,45.8,30.00,SSE,158,0.0,-999.0,82,0.00,,,0.00,Wunderground v.1.15,2013-04-11 12:00:00,
2013-04-11 05:05:00,50.6,45.6,30.01,N/A,-737280,0.0,-999.0,83,0.00,,,0.00,Wunderground v.1.15,2013-04-11 12:05:00,
2013-04-11 05:10:00,50.6,45.6,30.01,N/A,-737280,0.0,-999.0,83,0.00,,,0.00,Wunderground v.1.15,2013-04-11 12:10:00,
2013-04-11 05:15:00,50.4,45.4,30.01,N/A,-737280,0.0,-999.0,83,0.00,,,0.00,Wunderground v.1.15,2013-04-11 12:15:00,
2013-04-11 05:20:00,50.4,45.4,30.01,N/A,-737280,0.0,-999.0,83,0.00,,,0.00,Wunderground v.1.15,2013-04-11 12:20:00,
2013-04-11 05:25:00,50.2,45.6,30.01,SSE,158,0.0,-999.0,84,0.00,,,0.00,Wunderground v.1.15,2013-04-11 12:25:00,
2013-04-11 05:30:00,50.2,45.6,30.01,SSE,158,0.0,-999.0,84,0.00,,,0.00,Wunderground v.1.15,2013-04-11 12:30:00,
2013-04-11 05:35:00,49.8,45.2,30.01,SSE,158,0.0,-999.0,84,0.00,,,0.00,Wunderground v.1.15,2013-04-11 12:35:00,
2013-04-11 05:40:00,49.8,45.2,30.01,SSE,158,0.0,-999.0,84,0.00,,,0.00,Wunderground v.1.15,2013-04-11 12:40:00,
2013-04-11 05:45:00,49.6,45.3,30.01,SSE,158,0.0,-999.0,85,0.00,,,0.00,Wunderground v.1.15,2013-04-11 12:45:00,
2013-04-11 05:50:00,49.6,45.3,30.01,SSE,158,0.0,-999.0,85,0.00,,,0.00,Wunderground v.1.15,2013-04-11 12:50:00,
2013-04-11 05:55:00,49.3,45.3,30.02,SSE,158,0.0,-999.0,86,0.00,,,0.00,Wunderground v.1.15,2013-04-11 12:55:00,
2013-04-11 06:00:00,49.3,45.3,30.02,SSE,158,0.0,-999.0,86,0.00,,,0.00,Wunderground v.1.15,2013-04-11 13:00:00,
2013-04-11 06:05:00,49.7,45.4,30.02,SSE,158,0.0,-999.0,85,0.00,,,0.00,Wunderground v.1.15,2013-04-11 13:05:00,
2013-04-11 06:10:00,49.7,45.4,30.02,SSE,158,0.0,-999.0,85,0.00,,,0.00,Wunderground v.1.15,2013-04-11 13:10:00,
2013-04-11 06:15:00,50.0,45.4,30.02,East,90,0.0,-999.0,84,0.00,,,0.00,Wunderground v.1.15,2013-04-11 13:15:00,
2013-04-11 06:20:00,50.0,45.4,30.02,East,90,0.0,-999.0,84,0.00,,,0.00,Wunderground v.1.15,2013-04-11 13:20:00,
2013-04-11 06:25:00,49.8,45.5,30.02,N/A,-737280,0.0,-999.0,85,0.00,,,0.00,Wunderground v.1.15,2013-04-11 13:25:00,
2013-04-11 06:30:00,49.8,45.5,30.02,N/A,-737280,0.0,-999.0,85,0.00,,,0.00,Wunderground v.1.15,2013-04-11 13:30:00,
2013-04-11 06:35:00,50.2,45.6,30.02,N/A,-737280,0.0,-999.0,84,0.00,,,0.00,Wunderground v.1.15,2013-04-11 13:35:00,
2013-04-11 06:40:00,50.2,45.6,30.02,N/A,-737280,0.0,-999.0,84,0.00,,,0.00,Wunderground v.1.15,2013-04-11 13:40:00,
2013-04-11 06:45:00,50.5,45.5,30.02,East,90,0.0,-999.0,83,0.00,,,0.00,Wunderground v.1.15,2013-04-11 13:45:00,
2013-04-11 06:50:00,50.5,45.5,30.02,East,90,0.0,-999.0,83,0.00,,,0.00,Wunderground v.1.15,2013-04-11 13:50:00,
2013-04-11 06:55:00,50.7,45.7,30.02,East,90,0.0,-999.0,83,0.00,,,0.00,Wunderground v.1.15,2013-04-11 13:55:00,
2013-04-11 07:00:00,50.7,45.7,30.02,East,90,0.0,-999.0,83,0.00,,,0.00,Wunderground v.1.15,2013-04-11 14:00:00,
2013-04-11 07:15:00,50.4,45.4,30.01,SE,130,2.0,2.0,83,0.00,,,0.00,Wunderground v.1.15,2013-04-11 14:15:00,
2013-04-11 08:00:00,51.0,46.0,30.01,SE,135,2.0,-999.0,83,0.00,,,0.00,Wunderground v.1.15,2013-04-11 15:00:00,
2013-04-11 08:05:00,50.4,45.1,30.01,North,0,1.0,-999.0,82,0.00,,,0.00,Wunderground v.1.15,2013-04-11 15:05:00,
2013-04-11 08:10:00,50.4,45.1,30.01,North,0,1.0,-999.0,82,0.00,,,0.00,Wunderground v.1.15,2013-04-11 15:10:00,
2013-04-11 08:15:00,51.2,45.6,30.02,NW,315,1.0,-999.0,81,0.00,,,0.00,Wunderground v.1.15,2013-04-11 15:15:00,
2013-04-11 08:20:00,51.2,45.6,30.02,NW,315,1.0,-999.0,81,0.00,,,0.00,Wunderground v.1.15,2013-04-11 15:20:00,
2013-04-11 08:25:00,52.9,46.2,30.02,NW,315,1.0,-999.0,78,0.00,,,0.00,Wunderground v.1.15,2013-04-11 15:25:00,
2013-04-11 08:30:00,52.9,46.2,30.02,NW,315,1.0,-999.0,78,0.00,,,0.00,Wunderground v.1.15,2013-04-11 15:30:00,
2013-04-11 08:35:00,53.1,47.1,30.02,NW,315,2.0,-999.0,80,0.00,,,0.00,Wunderground v.1.15,2013-04-11 15:35:00,
2013-04-11 08:40:00,53.1,47.1,30.02,NW,315,2.0,-999.0,80,0.00,,,0.00,Wunderground v.1.15,2013-04-11 15:40:00,
2013-04-11 08:45:00,54.5,47.1,30.02,NW,315,1.0,-999.0,76,0.00,,,0.00,Wunderground v.1.15,2013-04-11 15:45:00,
2013-04-11 08:50:00,54.5,47.1,30.02,NW,315,1.0,-999.0,76,0.00,,,0.00,Wunderground v.1.15,2013-04-11 15:50:00,
2013-04-11 08:55:00,56.2,47.7,30.02,NW,315,1.0,-999.0,73,0.00,,,0.00,Wunderground v.1.15,2013-04-11 15:55:00,
2013-04-11 09:00:00,56.2,47.7,30.02,NW,315,1.0,-999.0,73,0.00,,,0.00,Wunderground v.1.15,2013-04-11 16:00:00,
2013-04-11 09:05:00,57.5,48.5,30.02,NW,315,1.0,-999.0,72,0.00,,,0.00,Wunderground v.1.15,2013-04-11 16:05:00,
2013-04-11 09:10:00,57.5,48.5,30.02,NW,315,1.0,-999.0,72,0.00,,,0.00,Wunderground v.1.15,2013-04-11 16:10:00,
2013-04-11 09:15:00,59.2,48.6,30.02,NW,315,0.0,-999.0,68,0.00,,,0.00,Wunderground v.1.15,2013-04-11 16:15:00,
2013-04-11 09:20:00,59.2,48.6,30.02,NW,315,0.0,-999.0,68,0.00,,,0.00,Wunderground v.1.15,2013-04-11 16:20:00,
2013-04-11 09:25:00,60.3,48.9,30.02,NW,315,0.0,-999.0,66,0.00,,,0.00,Wunderground v.1.15,2013-04-11 16:25:00,
2013-04-11 09:30:00,60.3,48.9,30.02,NW,315,0.0,-999.0,66,0.00,,,0.00,Wunderground v.1.15,2013-04-11 16:30:00,
2013-04-11 09:35:00,60.6,49.2,30.02,NW,315,0.0,-999.0,66,0.00,,,0.00,Wunderground v.1.15,2013-04-11 16:35:00,
2013-04-11 09:40:00,60.6,49.2,30.02,NW,315,0.0,-999.0,66,0.00,,,0.00,Wunderground v.1.15,2013-04-11 16:40:00,
2013-04-11 09:45:00,61.6,48.9,30.01,NW,315,0.0,-999.0,63,0.00,,,0.00,Wunderground v.1.15,2013-04-11 16:45:00,
2013-04-11 09:50:00,61.6,48.9,30.01,NW,315,0.0,-999.0,63,0.00,,,0.00,Wunderground v.1.15,2013-04-11 16:50:00,
2013-04-11 09:55:00,62.9,49.7,30.01,WNW,293,0.0,-999.0,62,0.00,,,0.00,Wunderground v.1.15,2013-04-11 16:55:00,
2013-04-11 10:00:00,62.9,49.7,30.01,WNW,293,0.0,-999.0,62,0.00,,,0.00,Wunderground v.1.15,2013-04-11 17:00:00,
2013-04-11 10:05:00,63.2,48.6,30.01,WNW,293,1.0,-999.0,59,0.00,,,0.00,Wunderground v.1.15,2013-04-11 17:05:00,
2013-04-11 10:10:00,63.2,48.6,30.01,WNW,293,1.0,-999.0,59,0.00,,,0.00,Wunderground v.1.15,2013-04-11 17:10:00,
2013-04-11 10:15:00,63.6,48.1,30.01,West,270,0.0,-999.0,57,0.00,,,0.00,Wunderground v.1.15,2013-04-11 17:15:00,
2013-04-11 10:20:00,63.6,48.1,30.01,West,270,0.0,-999.0,57,0.00,,,0.00,Wunderground v.1.15,2013-04-11 17:20:00,
2013-04-11 10:25:00,64.5,49.4,30.01,NNW,338,1.0,-999.0,58,0.00,,,0.00,Wunderground v.1.15,2013-04-11 17:25:00,
2013-04-11 10:30:00,64.5,49.4,30.01,NNW,338,1.0,-999.0,58,0.00,,,0.00,Wunderground v.1.15,2013-04-11 17:30:00,
2013-04-11 10:35:00,64.7,49.1,30.01,NW,315,1.0,-999.0,57,0.00,,,0.00,Wunderground v.1.15,2013-04-11 17:35:00,
2013-04-11 10:40:00,64.7,49.1,30.01,NW,315,1.0,-999.0,57,0.00,,,0.00,Wunderground v.1.15,2013-04-11 17:40:00,
2013-04-11 10:45:00,65.1,49.5,30.01,NNE,23,1.0,-999.0,57,0.00,,,0.00,Wunderground v.1.15,2013-04-11 17:45:00,
2013-04-11 10:50:00,65.1,49.5,30.01,NNE,23,1.0,-999.0,57,0.00,,,0.00,Wunderground v.1.15,2013-04-11 17:50:00,
2013-04-11 10:55:00,65.6,47.5,30.00,NW,315,1.0,-999.0,52,0.00,,,0.00,Wunderground v.1.15,2013-04-11 17:55:00,
2013-04-11 11:05:00,65.4,47.8,30.00,NW,315,1.0,-999.0,53,0.00,,,0.00,Wunderground v.1.15,2013-04-11 18:05:00,
2013-04-11 11:10:00,65.4,47.8,30.00,NW,315,1.0,-999.0,53,0.00,,,0.00,Wunderground v.1.15,2013-04-11 18:10:00,
2013-04-11 11:15:00,66.6,48.4,30.00,NW,315,1.0,-999.0,52,0.00,,,0.00,Wunderground v.1.15,2013-04-11 18:15:00,
2013-04-11 11:20:00,66.6,48.4,30.00,NW,315,1.0,-999.0,52,0.00,,,0.00,Wunderground v.1.15,2013-04-11 18:20:00,
2013-04-11 11:25:00,66.4,47.7,30.00,NNW,338,1.0,-999.0,51,0.00,,,0.00,Wunderground v.1.15,2013-04-11 18:25:00,
2013-04-11 11:30:00,66.4,47.7,30.00,NNW,338,1.0,-999.0,51,0.00,,,0.00,Wunderground v.1.15,2013-04-11 18:30:00,
2013-04-11 11:35:00,67.3,49.1,29.99,NE,45,1.0,-999.0,52,0.00,,,0.00,Wunderground v.1.15,2013-04-11 18:35:00,
2013-04-11 11:40:00,67.3,49.1,29.99,NE,45,1.0,-999.0,52,0.00,,,0.00,Wunderground v.1.15,2013-04-11 18:40:00,
2013-04-11 11:45:00,68.0,48.7,29.99,NW,315,1.0,-999.0,50,0.00,,,0.00,Wunderground v.1.15,2013-04-11 18:45:00,
2013-04-11 11:50:00,68.0,48.7,29.99,NW,315,1.0,-999.0,50,0.00,,,0.00,Wunderground v.1.15,2013-04-11 18:50:00,
2013-04-11 11:55:00,67.7,49.4,29.99,NW,315,1.0,-999.0,52,0.00,,,0.00,Wunderground v.1.15,2013-04-11 18:55:00,
2013-04-11 12:00:00,67.7,49.4,29.99,NW,315,1.0,-999.0,52,0.00,,,0.00,Wunderground v.1.15,2013-04-11 19:00:00,
2013-04-11 12:05:00,67.7,51.9,29.99,NW,315,1.0,-999.0,57,0.00,,,0.00,Wunderground v.1.15,2013-04-11 19:05:00,
2013-04-11 12:10:00,67.7,51.9,29.99,NW,315,1.0,-999.0,57,0.00,,,0.00,Wunderground v.1.15,2013-04-11 19:10:00,
2013-04-11 12:15:00,68.0,50.2,29.99,NNE,23,2.0,-999.0,53,0.00,,,0.00,Wunderground v.1.15,2013-04-11 19:15:00,
2013-04-11 12:20:00,68.0,50.2,29.99,NNE,23,2.0,-999.0,53,0.00,,,0.00,Wunderground v.1.15,2013-04-11 19:20:00,
2013-04-11 12:25:00,67.5,47.7,29.99,NW,315,1.0,-999.0,49,0.00,,,0.00,Wunderground v.1.15,2013-04-11 19:25:00,
2013-04-11 12:30:00,67.5,47.7,29.99,NW,315,1.0,-999.0,49,0.00,,,0.00,Wunderground v.1.15,2013-04-11 19:30:00,
2013-04-11 12:35:00,67.4,49.2,29.99,NNE,23,1.0,-999.0,52,0.00,,,0.00,Wunderground v.1.15,2013-04-11 19:35:00,
2013-04-11 12:40:00,67.4,49.2,29.99,NNE,23,1.0,-999.0,52,0.00,,,0.00,Wunderground v.1.15,2013-04-11 19:40:00,
2013-04-11 12:45:00,67.4,48.1,29.98,NNW,338,1.0,-999.0,50,0.00,,,0.00,Wunderground v.1.15,2013-04-11 19:45:00,
2013-04-11 12:50:00,67.4,48.1,29.98,NNW,338,1.0,-999.0,50,0.00,,,0.00,Wunderground v.1.15,2013-04-11 19:50:00,
2013-04-11 12:55:00,68.4,47.4,29.98,NNW,338,1.0,-999.0,47,0.00,,,0.00,Wunderground v.1.15,2013-04-11 19:55:00,
2013-04-11 13:00:00,68.4,47.4,29.98,NNW,338,1.0,-999.0,47,0.00,,,0.00,Wunderground v.1.15,2013-04-11 20:00:00,
2013-04-11 13:05:00,68.7,47.1,29.98,NNE,23,2.0,-999.0,46,0.00,,,0.00,Wunderground v.1.15,2013-04-11 20:05:00,
2013-04-11 13:10:00,68.7,47.1,29.98,NNE,23,2.0,-999.0,46,0.00,,,0.00,Wunderground v.1.15,2013-04-11 20:10:00,
2013-04-11 13:15:00,68.6,46.4,29.98,NNW,338,2.0,-999.0,45,0.00,,,0.00,Wunderground v.1.15,2013-04-11 20:15:00,
2013-04-11 13:20:00,68.6,46.4,29.98,NNW,338,2.0,-999.0,45,0.00,,,0.00,Wunderground v.1.15,2013-04-11 20:20:00,
2013-04-11 13:25:00,69.2,47.5,29.97,NNW,338,1.0,-999.0,46,0.00,,,0.00,Wunderground v.1.15,2013-04-11 20:25:00,
2013-04-11 13:30:00,69.2,47.5,29.97,NNW,338,1.0,-999.0,46,0.00,,,0.00,Wunderground v.1.15,2013-04-11 20:30:00,
2013-04-11 13:35:00,69.0,47.4,29.97,NNW,338,1.0,-999.0,46,0.00,,,0.00,Wunderground v.1.15,2013-04-11 20:35:00,
2013-04-11 13:40:00,69.0,47.4,29.97,NNW,338,1.0,-999.0,46,0.00,,,0.00,Wunderground v.1.15,2013-04-11 20:40:00,
2013-04-11 13:45:00,68.7,42.1,29.97,NW,315,1.0,-999.0,38,0.00,,,0.00,Wunderground v.1.15,2013-04-11 20:45:00,
2013-04-11 13:50:00,68.7,42.1,29.97,NW,315,1.0,-999.0,38,0.00,,,0.00,Wunderground v.1.15,2013-04-11 20:50:00,
2013-04-11 13:55:00,67.9,39.9,29.97,NNW,338,1.0,-999.0,36,0.00,,,0.00,Wunderground v.1.15,2013-04-11 20:55:00,
2013-04-11 14:00:00,67.9,39.9,29.97,NNW,338,1.0,-999.0,36,0.00,,,0.00,Wunderground v.1.15,2013-04-11 21:00:00,
2013-04-11 14:05:00,67.9,39.9,29.96,NNW,338,2.0,-999.0,36,0.00,,,0.00,Wunderground v.1.15,2013-04-11 21:05:00,
2013-04-11 14:10:00,67.9,39.9,29.96,NNW,338,2.0,-999.0,36,0.00,,,0.00,Wunderground v.1.15,2013-04-11 21:10:00,
2013-04-11 14:15:00,68.2,40.2,29.96,NW,315,1.0,-999.0,36,0.00,,,0.00,Wunderground v.1.15,2013-04-11 21:15:00,
2013-04-11 14:20:00,68.2,40.2,29.96,NW,315,1.0,-999.0,36,0.00,,,0.00,Wunderground v.1.15,2013-04-11 21:20:00,
2013-04-11 14:25:00,68.9,41.5,29.96,NNW,338,1.0,-999.0,37,0.00,,,0.00,Wunderground v.1.15,2013-04-11 21:25:00,
2013-04-11 14:30:00,68.9,41.5,29.96,NNW,338,1.0,-999.0,37,0.00,,,0.00,Wunderground v.1.15,2013-04-11 21:30:00,
2013-04-11 14:35:00,68.4,38.2,29.95,NNW,338,1.0,-999.0,33,0.00,,,0.00,Wunderground v.1.15,2013-04-11 21:35:00,
2013-04-11 14:40:00,68.4,38.2,29.95,NNW,338,1.0,-999.0,33,0.00,,,0.00,Wunderground v.1.15,2013-04-11 21:40:00,
2013-04-11 14:45:00,67.8,38.4,29.95,NW,315,1.0,-999.0,34,0.00,,,0.00,Wunderground v.1.15,2013-04-11 21:45:00,
2013-04-11 14:50:00,67.8,38.4,29.95,NW,315,1.0,-999.0,34,0.00,,,0.00,Wunderground v.1.15,2013-04-11 21:50:00,
2013-04-11 14:55:00,68.4,38.9,29.95,North,0,1.0,-999.0,34,0.00,,,0.00,Wunderground v.1.15,2013-04-11 21:55:00,
2013-04-11 15:00:00,68.4,38.9,29.95,North,0,1.0,-999.0,34,0.00,,,0.00,Wunderground v.1.15,2013-04-11 22:00:00,
2013-04-11 15:05:00,68.2,37.2,29.94,NNW,338,1.0,-999.0,32,0.00,,,0.00,Wunderground v.1.15,2013-04-11 22:05:00,
2013-04-11 15:10:00,68.2,37.2,29.94,NNW,338,1.0,-999.0,32,0.00,,,0.00,Wunderground v.1.15,2013-04-11 22:10:00,
2013-04-11 15:15:00,68.3,38.8,29.94,NW,315,1.0,-999.0,34,0.00,,,0.00,Wunderground v.1.15,2013-04-11 22:15:00,
2013-04-11 15:20:00,68.3,38.8,29.94,NW,315,1.0,-999.0,34,0.00,,,0.00,Wunderground v.1.15,2013-04-11 22:20:00,
2013-04-11 15:25:00,68.7,38.4,29.94,NW,315,1.0,-999.0,33,0.00,,,0.00,Wunderground v.1.15,2013-04-11 22:25:00,
2013-04-11 15:30:00,68.7,38.4,29.94,NW,315,1.0,-999.0,33,0.00,,,0.00,Wunderground v.1.15,2013-04-11 22:30:00,
2013-04-11 15:35:00,68.8,39.3,29.94,NNW,338,1.0,-999.0,34,0.00,,,0.00,Wunderground v.1.15,2013-04-11 22:35:00,
2013-04-11 15:40:00,68.8,39.3,29.94,NNW,338,1.0,-999.0,34,0.00,,,0.00,Wunderground v.1.15,2013-04-11 22:40:00,
2013-04-11 15:45:00,69.1,37.2,29.93,North,0,1.0,-999.0,31,0.00,,,0.00,Wunderground v.1.15,2013-04-11 22:45:00,
2013-04-11 15:50:00,69.1,37.2,29.93,North,0,1.0,-999.0,31,0.00,,,0.00,Wunderground v.1.15,2013-04-11 22:50:00,
2013-04-11 15:55:00,69.5,38.3,29.92,WNW,293,0.0,-999.0,32,0.00,,,0.00,Wunderground v.1.15,2013-04-11 22:55:00,
2013-04-11 16:00:00,69.5,38.3,29.92,WNW,293,0.0,-999.0,32,0.00,,,0.00,Wunderground v.1.15,2013-04-11 23:00:00,
2013-04-11 16:05:00,69.6,40.0,29.92,WNW,293,0.0,-999.0,34,0.00,,,0.00,Wunderground v.1.15,2013-04-11 23:05:00,
2013-04-11 16:10:00,69.6,40.0,29.92,WNW,293,0.0,-999.0,34,0.00,,,0.00,Wunderground v.1.15,2013-04-11 23:10:00,
2013-04-11 16:15:00,69.6,40.0,29.92,NNE,23,0.0,-999.0,34,0.00,,,0.00,Wunderground v.1.15,2013-04-11 23:15:00,
2013-04-11 16:20:00,69.6,40.0,29.92,NNE,23,0.0,-999.0,34,0.00,,,0.00,Wunderground v.1.15,2013-04-11 23:20:00,
2013-04-11 16:25:00,69.7,41.5,29.91,North,0,1.0,-999.0,36,0.00,,,0.00,Wunderground v.1.15,2013-04-11 23:25:00,
2013-04-11 16:30:00,69.7,41.5,29.91,North,0,1.0,-999.0,36,0.00,,,0.00,Wunderground v.1.15,2013-04-11 23:30:00,
2013-04-11 16:35:00,69.1,41.7,29.91,North,0,0.0,-999.0,37,0.00,,,0.00,Wunderground v.1.15,2013-04-11 23:35:00,
2013-04-11 16:40:00,69.1,41.7,29.91,North,0,0.0,-999.0,37,0.00,,,0.00,Wunderground v.1.15,2013-04-11 23:40:00,
2013-04-11 16:45:00,68.5,39.0,29.91,North,0,1.0,-999.0,34,0.00,,,0.00,Wunderground v.1.15,2013-04-11 23:45:00,
2013-04-11 16:50:00,68.5,39.0,29.91,North,0,1.0,-999.0,34,0.00,,,0.00,Wunderground v.1.15,2013-04-11 23:50:00,
2013-04-11 16:55:00,68.2,41.6,29.91,North,0,0.0,-999.0,38,0.00,,,0.00,Wunderground v.1.15,2013-04-11 23:55:00,
2013-04-11 17:00:00,68.2,41.6,29.91,North,0,0.0,-999.0,38,0.00,,,0.00,Wunderground v.1.15,2013-04-12 00:00:00,
2013-04-11 17:05:00,67.6,40.4,29.90,North,0,0.0,-999.0,37,0.00,,,0.00,Wunderground v.1.15,2013-04-12 00:05:00,
2013-04-11 17:10:00,67.6,40.4,29.90,North,0,0.0,-999.0,37,0.00,,,0.00,Wunderground v.1.15,2013-04-12 00:10:00,
2013-04-11 17:15:00,67.2,40.7,29.90,NNE,23,0.0,-999.0,38,0.00,,,0.00,Wunderground v.1.15,2013-04-12 00:15:00,
2013-04-11 17:20:00,67.2,40.7,29.90,NNE,23,0.0,-999.0,38,0.00,,,0.00,Wunderground v.1.15,2013-04-12 00:20:00,
2013-04-11 17:25:00,66.8,41.7,29.90,NNE,23,0.0,-999.0,40,0.00,,,0.00,Wunderground v.1.15,2013-04-12 00:25:00,
2013-04-11 17:30:00,66.8,41.7,29.90,NNE,23,0.0,-999.0,40,0.00,,,0.00,Wunderground v.1.15,2013-04-12 00:30:00,
2013-04-11 17:35:00,66.3,40.6,29.90,NNE,23,0.0,-999.0,39,0.00,,,0.00,Wunderground v.1.15,2013-04-12 00:35:00,
2013-04-11 17:40:00,66.3,40.6,29.90,NNE,23,0.0,-999.0,39,0.00,,,0.00,Wunderground v.1.15,2013-04-12 00:40:00,
2013-04-11 17:45:00,65.7,40.7,29.90,NNE,23,0.0,-999.0,40,0.00,,,0.00,Wunderground v.1.15,2013-04-12 00:45:00,
2013-04-11 17:57:00,65.7,40.7,29.90,NNE,23,0.0,-999.0,40,0.00,,,0.00,Wunderground v.1.15,2013-04-12 00:57:00,
2013-04-11 18:05:00,64.8,39.9,29.90,NNW,329,0.0,1.0,40,0.00,,,0.00,Wunderground v.1.15,2013-04-12 01:05:00,
2013-04-11 18:15:00,64.5,40.3,29.90,NNW,329,0.0,0.0,41,0.00,,,0.00,Wunderground v.1.15,2013-04-12 01:15:00,
2013-04-11 18:25:00,64.3,40.7,29.91,NNW,329,0.0,0.0,42,0.00,,,0.00,Wunderground v.1.15,2013-04-12 01:25:00,
2013-04-11 18:35:00,63.8,39.6,29.90,NNW,329,0.0,0.0,41,0.00,,,0.00,Wunderground v.1.15,2013-04-12 01:35:00,
2013-04-11 18:44:00,63.4,39.3,29.90,NNW,329,0.0,0.0,41,0.00,,,0.00,Wunderground v.1.15,2013-04-12 01:44:00,
2013-04-11 18:54:00,62.9,37.5,29.91,NW,318,1.0,1.0,39,0.00,,,0.00,Wunderground v.1.15,2013-04-12 01:54:00,
2013-04-11 19:00:00,62.7,38.0,29.90,NW,318,0.0,1.0,40,0.00,,,0.00,Wunderground v.1.15,2013-04-12 02:00:00,
2013-04-11 19:10:00,62.3,37.7,29.90,NW,318,1.0,2.0,40,0.00,,,0.00,Wunderground v.1.15,2013-04-12 02:10:00,
2013-04-11 19:15:00,62.0,38.0,29.90,NW,318,1.0,2.0,41,0.00,,,0.00,Wunderground v.1.15,2013-04-12 02:15:00,
2013-04-11 19:20:00,61.7,37.7,29.90,NW,318,1.0,1.0,41,0.00,,,0.00,Wunderground v.1.15,2013-04-12 02:20:00,
2013-04-11 19:25:00,61.6,38.3,29.90,NW,318,0.0,1.0,42,0.00,,,0.00,Wunderground v.1.15,2013-04-12 02:25:00,
2013-04-11 19:35:00,60.9,38.2,29.89,NW,318,0.0,0.0,43,0.00,,,0.00,Wunderground v.1.15,2013-04-12 02:35:00,
2013-04-11 19:45:00,60.4,38.4,29.89,NW,318,0.0,1.0,44,0.00,,,0.00,Wunderground v.1.15,2013-04-12 02:45:00,
2013-04-11 19:50:00,60.5,37.9,29.89,NW,318,0.0,0.0,43,0.00,,,0.00,Wunderground v.1.15,2013-04-12 02:50:00,
2013-04-11 20:00:00,60.3,38.3,29.90,NW,318,1.0,1.0,44,0.00,,,0.00,Wunderground v.1.15,2013-04-12 03:00:00,
2013-04-11 20:10:00,60.0,39.1,29.91,NW,318,1.0,1.0,46,0.00,,,0.00,Wunderground v.1.15,2013-04-12 03:10:00,
2013-04-11 20:15:00,59.8,37.8,29.91,NW,318,0.0,1.0,44,0.00,,,0.00,Wunderground v.1.15,2013-04-12 03:15:00,
2013-04-11 20:25:00,59.3,38.5,29.91,NW,318,0.0,0.0,46,0.00,,,0.00,Wunderground v.1.15,2013-04-12 03:25:00,
2013-04-11 20:30:00,59.0,38.2,29.91,NW,318,0.0,0.0,46,0.00,,,0.00,Wunderground v.1.15,2013-04-12 03:30:00,
2013-04-11 20:40:00,58.7,38.5,29.91,NW,318,0.0,1.0,47,0.00,,,0.00,Wunderground v.1.15,2013-04-12 03:40:00,
2013-04-11 20:45:00,58.8,37.5,29.91,NW,318,0.0,1.0,45,0.00,,,0.00,Wunderground v.1.15,2013-04-12 03:45:00,
2013-04-11 20:50:00,58.8,38.1,29.91,NW,318,0.0,0.0,46,0.00,,,0.00,Wunderground v.1.15,2013-04-12 03:50:00,
2013-04-11 20:55:00,58.8,38.1,29.91,NW,318,0.0,0.0,46,0.00,,,0.00,Wunderground v.1.15,2013-04-12 03:55:00,
2013-04-11 21:00:00,58.8,38.1,29.91,NW,318,1.0,1.0,46,0.00,,,0.00,Wunderground v.1.15,2013-04-12 04:00:00,
2013-04-11 21:05:00,58.7,38.5,29.92,NW,318,1.0,1.0,47,0.00,,,0.00,Wunderground v.1.15,2013-04-12 04:05:00,
2013-04-11 21:10:00,58.7,39.6,29.92,NW,318,0.0,0.0,49,0.00,,,0.00,Wunderground v.1.15,2013-04-12 04:10:00,
2013-04-11 21:15:00,58.2,38.6,29.92,NW,318,0.0,0.0,48,0.00,,,0.00,Wunderground v.1.15,2013-04-12 04:15:00,
2013-04-11 21:20:00,57.8,38.2,29.92,NW,318,0.0,1.0,48,0.00,,,0.00,Wunderground v.1.15,2013-04-12 04:20:00,
2013-04-11 21:25:00,57.8,38.8,29.92,NW,318,0.0,1.0,49,0.00,,,0.00,Wunderground v.1.15,2013-04-12 04:25:00,
2013-04-11 21:35:00,57.8,38.8,29.93,NW,318,0.0,0.0,49,0.00,,,0.00,Wunderground v.1.15,2013-04-12 04:35:00,
2013-04-11 21:45:00,57.3,39.3,29.92,NW,318,0.0,0.0,51,0.00,,,0.00,Wunderground v.1.15,2013-04-12 04:45:00,
2013-04-11 21:55:00,57.0,39.5,29.92,NW,318,0.0,0.0,52,0.00,,,0.00,Wunderground v.1.15,2013-04-12 04:55:00,
2013-04-11 22:00:00,57.1,39.6,29.92,NW,318,0.0,0.0,52,0.00,,,0.00,Wunderground v.1.15,2013-04-12 05:00:00,
2013-04-11 22:10:00,56.9,39.9,29.92,NW,318,0.0,0.0,53,0.00,,,0.00,Wunderground v.1.15,2013-04-12 05:10:00,
2013-04-11 22:15:00,56.3,39.9,29.91,NNW,336,0.0,1.0,54,0.00,,,0.00,Wunderground v.1.15,2013-04-12 05:15:00,
2013-04-11 22:25:00,56.4,39.5,29.91,NNE,24,1.0,2.0,53,0.00,,,0.00,Wunderground v.1.15,2013-04-12 05:25:00,
2013-04-11 22:30:00,57.0,39.5,29.91,NNW,329,1.0,1.0,52,0.00,,,0.00,Wunderground v.1.15,2013-04-12 05:30:00,
2013-04-11 22:35:00,57.2,40.7,29.91,NNW,329,1.0,1.0,54,0.00,,,0.00,Wunderground v.1.15,2013-04-12 05:35:00,
2013-04-11 22:45:00,56.8,40.8,29.91,NNW,329,0.0,0.0,55,0.00,,,0.00,Wunderground v.1.15,2013-04-12 05:45:00,
2013-04-11 22:55:00,55.3,40.3,29.90,NNW,329,0.0,2.0,57,0.00,,,0.00,Wunderground v.1.15,2013-04-12 05:55:00,
2013-04-11 23:00:00,55.4,41.3,29.90,NNW,338,1.0,-999.0,59,0.00,,,0.00,Wunderground v.1.15,2013-04-12 06:00:00,
2013-04-11 23:05:00,54.4,42.1,29.90,NNW,338,1.0,-999.0,63,0.00,,,0.00,Wunderground v.1.15,2013-04-12 06:05:00,
2013-04-11 23:10:00,54.4,42.1,29.90,NNW,338,1.0,-999.0,63,0.00,,,0.00,Wunderground v.1.15,2013-04-12 06:10:00,
2013-04-11 23:15:00,53.9,41.2,29.90,NNW,338,0.0,-999.0,62,0.00,,,0.00,Wunderground v.1.15,2013-04-12 06:15:00,
2013-04-11 23:20:00,53.9,41.2,29.90,NNW,338,0.0,-999.0,62,0.00,,,0.00,Wunderground v.1.15,2013-04-12 06:20:00,
2013-04-11 23:25:00,54.1,40.9,29.90,NNW,338,0.0,-999.0,61,0.00,,,0.00,Wunderground v.1.15,2013-04-12 06:25:00,
2013-04-11 23:30:00,54.1,40.9,29.90,NNW,338,0.0,-999.0,61,0.00,,,0.00,Wunderground v.1.15,2013-04-12 06:30:00,
2013-04-11 23:35:00,54.6,41.0,29.89,NNW,338,0.0,-999.0,60,0.00,,,0.00,Wunderground v.1.15,2013-04-12 06:35:00,
2013-04-11 23:40:00,54.6,41.0,29.89,NNW,338,0.0,-999.0,60,0.00,,,0.00,Wunderground v.1.15,2013-04-12 06:40:00,
2013-04-11 23:45:00,54.8,40.3,29.89,NNW,338,1.0,-999.0,58,0.00,,,0.00,Wunderground v.1.15,2013-04-12 06:45:00,
2013-04-11 23:50:00,54.8,40.3,29.89,NNW,338,1.0,-999.0,58,0.00,,,0.00,Wunderground v.1.15,2013-04-12 06:50:00,
2013-04-11 23:55:00,54.9,39.9,29.89,North,0,0.0,-999.0,57,0.00,,,0.00,Wunderground v.1.15,2013-04-12 06:55:00,